Torna al catalogo

STARLINK-37881

AttivoComunicazioniSSO
NORAD 69547·PAYLOAD·🇺🇸 United States

Lanciato Jun 15, 2026 da Vandenberg Space Force Base

Loading…

Prossimi Passaggi (prossime 24 ore)

TLE

AggiornatoSource: CelesTrak SupGP

Epoca: Sep 15, 2026, 03:42 UTC

1 69547C 26135B   26258.15465278 -.00040988  00000+0 -12727-2 0  2588
2 69547  97.2835 285.8553 0001346  85.9160  33.8691 15.33451565    15

Traccia STARLINK-37881 in tempo reale con AllMySat

Download on the App Store